Weather Service Report


314 
ASUS45 KSLC 260210
RWRUT 

UTAH REGIONAL WEATHER ROUNDUP
NATIONAL WEATHER SERVICE SALT LAKE CITY UT
800 PM MDT MON MAR 25 2019

UTZ001>011-023>025-260300-

NORTHERN UTAH
  
CITY           SKY/WX    TMP DP  RH WIND       PRES   REMARKS
BRIGHAM CITY   MOCLDY    51  30  44 NW3       30.16F                  
HILL AFB       MOCLDY    51  30  45 NE6       30.16S                  
LOGAN          MOCLDY    46  36  68 NE5       30.16F                  
OGDEN          MOCLDY    47  32  56 N5        30.15F                  
SALT LAKE CITY MOCLDY    53  32  44 N5        30.14S                  
TOOELE VALLEY  MOCLDY    50  37  62 CALM      30.16S                  
WENDOVER       MOCLDY    53  36  52 NE6       30.14S                  
HEBER CITY       N/A     46  21  36 SE6       30.19S                  
WEST JORDAN    MOCLDY    54  25  32 SE3       30.16S                  

$$

UTZ011>015-024>027-260300-

CENTRAL/NORTHEAST UTAH
  
CITY           SKY/WX    TMP DP  RH WIND       PRES   REMARKS
PROVO AIRPORT  MOCLDY    54  29  38 CALM      30.17F                  
MOAB/CANYONLAN MOCLDY    53  28  38 N6        30.21S                  
DELTA          MOCLDY    55  23  28 CALM      30.15F                  
PRICE          MOCLDY    48  28  46 E5        30.26S                  
RICHFIELD      CLEAR     52  27  37 NW5       30.16R                  
ROOSEVELT      MOCLDY    45  28  53 NW7       30.29F                  
VERNAL         PTCLDY    44  26  49 CALM      30.27F                  

$$

UTZ013>016-019>022-027-260300-

SOUTHERN UTAH
  
CITY           SKY/WX    TMP DP  RH WIND       PRES   REMARKS
BRYCE CANYON   PTCLDY    34  20  56 S9        30.28S WCI  27          
CEDAR CITY     PTCLDY    55  20  25 SE7       30.15S                  
MILFORD        MOCLDY    56  27  32 S3        30.13S                  
ST GEORGE      MOCLDY    66  36  32 SW9       30.06S                  
HANKSVILLE     MOCLDY    55  27  33 NE9       30.23F                  
KANAB          CLEAR     57  23  26 NE3G12    30.20S                  
BLANDING         N/A     52  20  28 S3        30.32F                  

$$

REGIONAL REPORTS     COLORADO/ARIZONA
  
CITY           SKY/WX    TMP DP  RH WIND       PRES   REMARKS
CRAIG, CO      CLEAR     39  22  50 E8        30.32S WCI  33          
GRAND JUNCTION CLEAR     52  32  46 N6        30.24F                  
RIFLE, CO      CLEAR     47  24  40 S6        30.28S                  
MONTROSE, CO   CLEAR     50  23  34 W5        30.29S                  
CORTEZ, CO     PTCLDY    46  25  43 SE6       30.26S                  
COLORADO CITY    N/A     61  21  21 E7        30.16S                  
PAGE, AZ       CLEAR     61  25  25 N8        30.16S                  
GRAND CANYON   CLEAR     52  21  29 NE5       30.24S                  
KINGMAN, AZ    CLEAR     63  29  27 SW10      30.10S                  
FLAGSTAFF, AZ  CLEAR     51  21  30 CALM      30.25S                  

$$

REGIONAL REPORTS    NEVADA/IDAHO/WYOMING
  
CITY           SKY/WX    TMP DP  RH WIND       PRES   REMARKS
LAS VEGAS, NV  PTCLDY    74  23  15 E5        30.01F                  
ELY, NY        CLOUDY    45  27  49 S13       30.14S                  
ELKO, NV       CLOUDY    55  25  31 S15G22    30.04S                  
POCATELLO, ID  CLOUDY    44  26  49 CALM      30.16F                  
BURLEY, ID     CLOUDY    52  25  35 SE8       30.09F                  
FORT BRIDGER,    N/A     34  18  51 CALM      30.30S                  
EVANSTON, WY   MOCLDY    30  21  69 E9        30.24F WCI  22          
ROCK SPRINGS,  PTCLDY    36  15  42 N7        30.27F WCI  30          
KEMMERER, WY   MOCLDY    32  21  64 SE3       30.28S                  

$$
  

Return to Home page


Western Regional Climate Center, wrcc@dri.edu